EST,Max TemperatureF,Mean TemperatureF,Min TemperatureF,Max Dew PointF,MeanDew PointF,Min DewpointF,Max Humidity, Mean Humidity, Min Humidity, Max Sea Level PressureIn, Mean Sea Level PressureIn, Min Sea Level PressureIn, Max VisibilityMiles, Mean VisibilityMiles, Min VisibilityMiles, Max Wind SpeedMPH, Mean Wind SpeedMPH, Max Gust SpeedMPH,PrecipitationIn, CloudCover, Events, WindDirDegrees
2013-12-1,71,60,48,58,52,46,100,83,66,30.24,30.15,30.01,10,9,5,12,4,13,0.00,7,,10
2013-12-2,70,59,48,55,52,48,100,76,51,30.00,29.92,29.84,10,7,2,13,3,16,0.00,5,,319
2013-12-3,74,60,46,59,53,45,100,77,53,29.98,29.94,29.90,10,7,0,10,3,14,0.00,3,Fog,160
2013-12-4,80,67,54,65,61,54,100,79,58,30.11,30.04,29.97,10,7,0,9,3,12,0.00,6,Fog,198
2013-12-5,83,69,55,66,62,56,100,78,55,30.17,30.12,30.08,10,8,3,15,5,18,0.00,4,,166
2013-12-6,83,72,61,68,65,62,100,78,55,30.17,30.13,30.10,10,10,6,16,6,21,0.00,2,,189
2013-12-7,83,73,62,70,67,62,100,79,58,30.23,30.18,30.15,10,7,0,14,7,19,0.00,5,Fog,205
2013-12-8,69,65,61,65,62,60,100,94,87,30.27,30.22,30.17,10,3,0,15,8,16,0.00,8,Fog,52
2013-12-9,84,73,62,68,64,62,100,78,55,30.19,30.14,30.07,10,6,0,18,5,23,0.00,5,Fog,189
2013-12-10,78,64,49,71,63,43,100,83,66,30.28,30.12,30.03,10,9,0,20,9,25,0.13,6,Rain,263
2013-12-11,66,55,44,56,49,40,89,81,72,30.32,30.28,30.25,10,10,10,18,8,23,0.00,6,,5
2013-12-12,65,52,39,48,37,23,92,56,20,30.39,30.32,30.27,10,10,10,17,6,20,0.00,3,,351
2013-12-13,66,53,39,54,46,38,100,80,60,30.36,30.27,30.16,10,10,10,16,5,21,0.00,3,,29
2013-12-14,78,64,50,69,62,49,100,87,74,30.14,30.00,29.88,10,9,5,24,8,32,0.36,7,Rain-Thunderstorm,179
2013-12-15,68,57,46,67,56,42,100,86,72,30.18,29.98,29.87,10,9,4,18,8,25,0.19,7,Rain,270
2013-12-16,60,48,35,43,38,34,100,73,46,30.27,30.22,30.18,10,10,9,10,4,13,0.00,1,,341
2013-12-17,67,51,35,46,38,33,100,65,29,30.30,30.24,30.19,10,10,9,10,3,13,0.00,0,,270
2013-12-18,64,51,37,40,34,22,100,60,20,30.32,30.27,30.21,10,10,10,12,5,17,0.00,0,,307
2013-12-19,71,52,33,55,46,32,100,77,53,30.33,30.28,30.23,10,9,2,9,3,12,0.00,1,,68
2013-12-20,77,60,43,60,53,44,100,79,57,30.24,30.20,30.16,10,8,1,10,3,13,0.00,5,,110
2013-12-21,83,69,55,69,64,57,100,74,47,30.15,30.11,30.04,10,10,7,17,8,22,0.00,3,,157
2013-12-22,84,76,68,70,69,67,100,79,58,30.14,30.10,30.07,10,10,9,21,9,27,0.00,5,,179
2013-12-23,82,71,59,70,67,57,100,81,62,30.15,30.12,30.07,10,10,9,20,10,26,T,6,Rain,228
2013-12-24,61,50,39,57,45,31,100,67,33,30.34,30.24,30.14,10,10,7,21,9,26,T,5,Rain,326
2013-12-25,59,48,36,50,43,31,92,84,76,30.34,30.30,30.27,10,10,9,22,10,27,0.00,7,,3
2013-12-26,56,52,47,49,46,42,93,84,74,30.31,30.25,30.21,10,10,9,12,6,15,T,7,Rain,1
2013-12-27,58,54,50,51,48,46,93,83,72,30.35,30.30,30.25,10,10,10,15,8,19,T,8,Rain,14
2013-12-28,69,62,54,66,59,48,100,86,72,30.31,30.17,29.99,10,6,0,21,9,25,0.02,7,Fog-Rain,54
2013-12-29,73,65,56,69,65,53,93,81,68,30.03,29.95,29.90,10,9,4,18,9,26,0.16,6,Rain,219
2013-12-30,66,55,44,52,48,44,100,73,45,30.22,30.13,30.03,10,10,4,16,5,21,0.00,6,,310
2013-12-31,61,56,51,51,48,45,93,74,55,30.34,30.29,30.21,10,10,10,10,4,14,0.00,7,,347